• In Moldova, Republic
  • List of Countries
  • For 7 days
  • Water Temperature
  • Satellite Maps
  • Weather Map
  • Weather Widgets
  • user-avatar
    Login

    Hourly Weather Shusha

    Today, 21 July, Friday

    Time Temperature Precipitation Wind Pressure Humidity
    00:00 +20°C° 0 mm 2 mps 658 mmHg 40%
    01:00 +20°C° 0 mm 2 mps 658 mmHg 40%
    02:00 +20°C° 0 mm 2 mps 658 mmHg 40%
    03:00 +20°C° 0 mm 2 mps 657 mmHg 39%
    04:00 +21°C° 0 mm 2 mps 658 mmHg 39%
    05:00 +21°C° 0 mm 2 mps 658 mmHg 38%
    06:00 +21°C° 0 mm 2 mps 659 mmHg 37%
    07:00 +25°C° 0 mm 2 mps 659 mmHg 32%
    08:00 +27°C° 0 mm 2 mps 660 mmHg 27%
    09:00 +29°C° 0 mm 2 mps 661 mmHg 22%
    10:00 +30°C° 0 mm 3 mps 661 mmHg 21%
    11:00 +31°C° 0 mm 3 mps 661 mmHg 19%
    12:00 +33°C° 0 mm 3 mps 661 mmHg 18%
    13:00 +33°C° 0 mm 3 mps 661 mmHg 18%
    14:00 +34°C° 0 mm 3 mps 660 mmHg 19%
    15:00 +34°C° 0 mm 4 mps 660 mmHg 19%
    16:00 +33°C° 0 mm 3 mps 660 mmHg 21%
    17:00 +31°C° 0 mm 3 mps 660 mmHg 23%
    18:00 +31°C° 0 mm 3 mps 660 mmHg 25%
    19:00 +28°C° 0 mm 3 mps 660 mmHg 27%
    20:00 +26°C° 0 mm 2 mps 660 mmHg 30%
    21:00 +23°C° 0 mm 2 mps 660 mmHg 32%
    22:00 +23°C° 0 mm 2 mps 660 mmHg 33%
    23:00 +21°C° 0 mm 2 mps 660 mmHg 34%

    Tomorrow, 22 July, Saturday

    Time Temperature Precipitation Wind Pressure Humidity
    00:00 +21°C° 0 mm 2 mps 660 mmHg 35%
    01:00 +20°C° 0 mm 2 mps 660 mmHg 34%
    02:00 +20°C° 0 mm 2 mps 660 mmHg 33%
    03:00 +20°C° 0 mm 2 mps 659 mmHg 33%
    04:00 +20°C° 0 mm 2 mps 660 mmHg 33%
    05:00 +20°C° 0 mm 2 mps 660 mmHg 33%
    06:00 +21°C° 0 mm 2 mps 660 mmHg 32%
    07:00 +24°C° 0 mm 2 mps 661 mmHg 30%
    08:00 +26°C° 0 mm 2 mps 661 mmHg 27%
    09:00 +28°C° 0 mm 2 mps 662 mmHg 24%
    10:00 +29°C° 0 mm 3 mps 662 mmHg 23%
    11:00 +31°C° 0 mm 3 mps 662 mmHg 22%
    12:00 +33°C° 0 mm 3 mps 662 mmHg 21%
    13:00 +33°C° 0 mm 3 mps 662 mmHg 21%
    14:00 +34°C° 0 mm 4 mps 661 mmHg 21%
    15:00 +34°C° 0 mm 4 mps 661 mmHg 21%
    16:00 +33°C° 0 mm 4 mps 661 mmHg 23%
    17:00 +31°C° 0 mm 3 mps 660 mmHg 25%
    18:00 +30°C° 0 mm 3 mps 660 mmHg 27%
    19:00 +28°C° 0 mm 3 mps 660 mmHg 31%
    20:00 +26°C° 0 mm 2 mps 660 mmHg 35%
    21:00 +24°C° 0 mm 2 mps 659 mmHg 38%
    22:00 +23°C° 0 mm 2 mps 659 mmHg 39%
    23:00 +21°C° 0 mm 2 mps 659 mmHg 40%

    Day after tomorrow, 23 July, Sunday

    Time Temperature Precipitation Wind Pressure Humidity
    00:00 +21°C° 0 mm 2 mps 659 mmHg 40%
    01:00 +21°C° 0 mm 2 mps 659 mmHg 40%
    02:00 +20°C° 0 mm 2 mps 658 mmHg 39%
    03:00 +20°C° 0 mm 2 mps 658 mmHg 39%
    04:00 +21°C° 0 mm 2 mps 658 mmHg 38%
    05:00 +21°C° 0 mm 2 mps 658 mmHg 38%
    06:00 +21°C° 0 mm 2 mps 659 mmHg 37%
    07:00 +25°C° 0 mm 2 mps 659 mmHg 33%
    08:00 +27°C° 0 mm 2 mps 659 mmHg 29%
    09:00 +29°C° 0 mm 2 mps 660 mmHg 25%
    10:00 +30°C° 0 mm 3 mps 660 mmHg 24%
    11:00 +31°C° 0 mm 3 mps 659 mmHg 22%
    12:00 +33°C° 0 mm 3 mps 659 mmHg 21%
    13:00 +34°C° 0 mm 3 mps 659 mmHg 21%
    14:00 +34°C° 0 mm 3 mps 659 mmHg 20%
    15:00 +35°C° 0 mm 3 mps 658 mmHg 20%
    16:00 +34°C° 0 mm 3 mps 658 mmHg 22%
    17:00 +33°C° 0 mm 3 mps 658 mmHg 24%
    18:00 +31°C° 0 mm 2 mps 657 mmHg 26%
    19:00 +29°C° 0 mm 2 mps 657 mmHg 29%
    20:00 +27°C° 0 mm 2 mps 657 mmHg 32%
    21:00 +24°C° 0 mm 2 mps 657 mmHg 35%
    22:00 +24°C° 0 mm 2 mps 657 mmHg 37%
    23:00 +23°C° 0 mm 2 mps 657 mmHg 38%

    24 July, Monday

    Time Temperature Precipitation Wind Pressure Humidity
    00:00 +21°C° 0 mm 2 mps 657 mmHg 39%
    01:00 +21°C° 0 mm 2 mps 657 mmHg 39%
    02:00 +20°C° 0 mm 2 mps 657 mmHg 40%
    03:00 +20°C° 0 mm 2 mps 657 mmHg 41%
    04:00 +20°C° 0 mm 2 mps 658 mmHg 41%
    05:00 +21°C° 0 mm 2 mps 658 mmHg 41%
    06:00 +21°C° 0 mm 2 mps 658 mmHg 41%
    07:00 +24°C° 0 mm 2 mps 659 mmHg 37%
    08:00 +26°C° 0 mm 2 mps 659 mmHg 34%
    09:00 +28°C° 0 mm 3 mps 660 mmHg 30%
    10:00 +29°C° 0 mm 3 mps 660 mmHg 29%
    11:00 +30°C° 0 mm 4 mps 660 mmHg 27%
    12:00 +32°C° 0 mm 4 mps 659 mmHg 26%
    13:00 +33°C° 0 mm 4 mps 659 mmHg 26%
    14:00 +33°C° 0 mm 4 mps 659 mmHg 26%
    15:00 +33°C° 0 mm 5 mps 659 mmHg 26%
    16:00 +32°C° 0 mm 5 mps 658 mmHg 28%
    17:00 +30°C° 0 mm 5 mps 658 mmHg 31%
    18:00 +29°C° 0 mm 5 mps 658 mmHg 33%
    19:00 +27°C° 0 mm 4 mps 658 mmHg 38%
    20:00 +25°C° 0 mm 3 mps 658 mmHg 43%
    21:00 +23°C° 0 mm 2 mps 658 mmHg 47%
    22:00 +21°C° 0 mm 2 mps 658 mmHg 48%
    23:00 +21°C° 0 mm 2 mps 658 mmHg 49%

    25 July, Tuesday

    Time Temperature Precipitation Wind Pressure Humidity
    00:00 +20°C° 0 mm 2 mps 657 mmHg 50%
    01:00 +20°C° 0 mm 2 mps 657 mmHg 49%
    02:00 +20°C° 0 mm 2 mps 657 mmHg 48%
    03:00 +20°C° 0 mm 2 mps 657 mmHg 47%
    04:00 +20°C° 0 mm 2 mps 657 mmHg 46%
    05:00 +21°C° 0 mm 1 mps 658 mmHg 45%
    06:00 +22°C° 0 mm 1 mps 658 mmHg 45%
    07:00 +24°C° 0 mm 2 mps 658 mmHg 40%
    08:00 +26°C° 0 mm 2 mps 659 mmHg 35%
    09:00 +28°C° 0 mm 2 mps 659 mmHg 30%
    10:00 +29°C° 0 mm 3 mps 659 mmHg 28%
    11:00 +31°C° 0 mm 3 mps 659 mmHg 26%
    12:00 +33°C° 0 mm 3 mps 658 mmHg 24%
    13:00 +33°C° 0 mm 3 mps 658 mmHg 24%
    14:00 +34°C° 0 mm 3 mps 658 mmHg 23%
    15:00 +34°C° 0 mm 4 mps 657 mmHg 23%
    16:00 +33°C° 0 mm 3 mps 657 mmHg 26%
    17:00 +33°C° 0 mm 3 mps 657 mmHg 28%
    18:00 +31°C° 0 mm 3 mps 657 mmHg 31%
    19:00 +28°C° 0 mm 3 mps 657 mmHg 36%
    20:00 +26°C° 0 mm 2 mps 657 mmHg 41%
    21:00 +24°C° 0 mm 2 mps 657 mmHg 46%
    22:00 +23°C° 0 mm 2 mps 657 mmHg 47%
    23:00 +23°C° 0 mm 2 mps 657 mmHg 47%

    26 July, Wednesday

    Time Temperature Precipitation Wind Pressure Humidity
    00:00 +23°C° 0 mm 2 mps 657 mmHg 48%
    01:00 +21°C° 0 mm 2 mps 657 mmHg 48%
    02:00 +21°C° 0 mm 2 mps 657 mmHg 48%
    03:00 +21°C° 0 mm 2 mps 657 mmHg 48%
    04:00 +21°C° 0 mm 2 mps 657 mmHg 48%
    05:00 +21°C° 0 mm 2 mps 657 mmHg 47%
    06:00 +23°C° 0 mm 2 mps 658 mmHg 46%
    07:00 +25°C° 0 mm 2 mps 658 mmHg 41%
    08:00 +27°C° 0 mm 2 mps 658 mmHg 36%
    09:00 +29°C° 0 mm 2 mps 659 mmHg 31%
    10:00 +30°C° 0 mm 2 mps 659 mmHg 28%
    11:00 +33°C° 0 mm 3 mps 659 mmHg 26%
    12:00 +34°C° 0 mm 3 mps 659 mmHg 23%
    13:00 +34°C° 0 mm 3 mps 659 mmHg 23%
    14:00 +35°C° 0 mm 3 mps 659 mmHg 22%
    15:00 +35°C° 0 mm 3 mps 659 mmHg 22%
    16:00 +34°C° 0 mm 3 mps 659 mmHg 24%
    17:00 +34°C° 0 mm 3 mps 658 mmHg 26%
    18:00 +33°C° 0 mm 3 mps 658 mmHg 28%
    19:00 +29°C° 0 mm 3 mps 658 mmHg 32%
    20:00 +27°C° 0 mm 2 mps 658 mmHg 37%
    21:00 +25°C° 0 mm 2 mps 658 mmHg 41%
    22:00 +24°C° 0 mm 2 mps 658 mmHg 42%
    23:00 +24°C° 0 mm 2 mps 658 mmHg 42%
    Show more